{"data":{"norad_id":55457,"intl_designator":"2023-015J","name":"STARLINK-5682","alt_names":[],"object_type":"PAYLOAD","status":"ACTIVE","operator":null,"country":"US","launch_date":"2023-02-02","launch_site_code":"AFETR","launch_vehicle":null,"mission":null,"orbit_class":"UNKNOWN","rcs_meters":null,"size_class":null,"mass_kg":null,"dimensions":null,"purposes":["comms"],"wikipedia_slug":null,"has_3d_model":false,"image_url":null,"decayed_at":null,"tle_current":{"epoch":"2026-05-24T23:54:41.971968Z","epoch_age_seconds":75699,"freshness":"FRESH","line1":"1 55457U 23015J   26144.99631912  .00001296  00000+0  56609-4 0  9991","line2":"2 55457  43.0032 257.6532 0001278 270.6001  89.4705 15.27575906182397","mean_motion":15.27575906,"eccentricity":0.0001278,"inclination_deg":43.0032,"raan_deg":257.6532,"arg_perigee_deg":270.6001,"mean_anomaly_deg":89.4705,"bstar":5.6609e-5,"rev_number":18239,"period_min":94.267001354498,"perigee_km":482.18449382607,"apogee_km":483.93821612561,"semimajor_km":6861.1983549758,"source":"CELESTRAK","updated_at":"2026-05-25T13:38:17.803819Z"}}}